Welcome to the New NWS' Forecast!
Most changes are behind the scenes, but click here for differences you might notice.

Regional Weather Roundup (RWR)

Issued by National Weather Service (NWS)

                            
344 
ASUS46 KSEW 150610
RWRWA 

WASHINGTON REGIONAL WEATHER ROUNDUP
NATIONAL WEATHER SERVICE SEATTLE WA
1100 PM PDT SAT JUL 14 2018

NOTE:"FAIR" INDICATES FEW OR NO CLOUDS BELOW 12,000 FEET WITH NO 
SIGNIFICANT WEATHER AND/OR OBSTRUCTIONS TO VISIBILITY.

WAZ507-509-555>559-150700-
SEATTLE, TACOMA, EVERETT, AND VICINITY
  
CITY           SKY/WX    TMP DP  RH WIND       PRES   REMARKS
EVERETT        CLEAR     67  51  56 NW6       30.07S                  
6HR MIN TEMP:  67; 6HR MAX TEMP:  79;                                

BOEING FIELD   CLEAR     75  50  41 CALM      30.03F                  
6HR MIN TEMP:  75; 6HR MAX TEMP:  84;                                

RENTON         CLEAR     74  58  57 N5        30.03S                  
6HR MIN TEMP:  74; 6HR MAX TEMP:  86;                                

SEATAC AIRPORT PTCLDY    76  50  40 N10       30.05S                  
6HR MIN TEMP:  74; 6HR MAX TEMP:  87;                                

JBLM-MCCHORD   CLEAR     74  52  46 NE3       30.04S                  
6HR MIN TEMP:  74; 6HR MAX TEMP:  85;                                

PUYALLUP       FAIR      66  57  72 CALM      30.05S                  
BREMERTON      CLEAR     61  48  62 CALM      30.05F                  
6HR MIN TEMP:  60; 6HR MAX TEMP:  85;                                

JBLM-FT LEWIS  CLEAR     75  51  43 N6        30.03S                  
6HR MIN TEMP:  75; 6HR MAX TEMP:  86;                                

TACOMA NARROWS CLEAR     73  47  39 N8        30.03F                  
6HR MIN TEMP:  73; 6HR MAX TEMP:  81;                                

$$
 
WAZ001-503-506-510-514-515-150700-
NORTH INTERIOR
  
CITY           SKY/WX    TMP DP  RH WIND       PRES   REMARKS
BELLINGHAM     CLEAR     61  55  81 CALM      30.04S                  
6HR MIN TEMP:  60; 6HR MAX TEMP:  80;                                

FRIDAY HARBOR  CLEAR     60  48  64 W3        30.05S                  
6HR MIN TEMP:  58; 6HR MAX TEMP:  86;                                

EASTSOUND      CLEAR     63  52  67 CALM      30.03S                  
PORT ANGELES   CLEAR     63  49  60 W3        30.07F                  
6HR MIN TEMP:  58; 6HR MAX TEMP:  85;                                

EDIZ HOOK      FAIR      58  51  77 SW6       30.06F                  
6HR MIN TEMP:  58; 6HR MAX TEMP:  78;                                

PORT TOWNSEND  FAIR      59  50  72 CALM      30.05S                  
NAS WHIDBEY    PTCLDY    59  50  72 SW3       30.09S                  
6HR MIN TEMP:  58; 6HR MAX TEMP:  75;                                

ARLINGTON      CLEAR     63  54  72 SE3       30.06R                  
6HR MIN TEMP:  63; 6HR MAX TEMP:  83;                                

BURLINGTON     CLEAR     61  54  77 CALM      30.05S                  
$$
 
WAZ020-022-039-040-504-511-512-150700-
SOUTHWEST INTERIOR
  
CITY           SKY/WX    TMP DP  RH WIND       PRES   REMARKS
SHELTON        CLEAR     63  53  70 CALM      30.02S                  
6HR MIN TEMP:  63; 6HR MAX TEMP:  88;                                

OLYMPIA        CLEAR     64  50  60 CALM      30.03S                  
6HR MIN TEMP:  63; 6HR MAX TEMP:  87;                                

CHEHALIS       FAIR      70  52  52 CALM      30.03S                  
KELSO          PTCLDY    71  59  65 N3        30.02R                  
6HR MIN TEMP:  71; 6HR MAX TEMP:  92;                                

VANCOUVER      CLEAR     79  57  46 NW8       29.97R                  
6HR MIN TEMP:  79; 6HR MAX TEMP:  92;                                

SCAPPOOSE, OR  PTCLDY    78  54  43 NW8       29.97S                  
6HR MIN TEMP:  78; 6HR MAX TEMP:  92;                                

PORTLAND, OR   CLEAR     78  58  49 NW10      29.98R                  
6HR MIN TEMP:  78; 6HR MAX TEMP:  93;                                

$$
 
WAZ021-516-517-150700-
WASHINGTON COAST
  
CITY           SKY/WX    TMP DP  RH WIND       PRES   REMARKS
FORKS          CLEAR     65  50  58 N8        30.05F                  
6HR MIN TEMP:  64; 6HR MAX TEMP:  77;                                

HOQUIAM        CLEAR     64  56  75 CALM      30.04S                  
6HR MIN TEMP:  63; 6HR MAX TEMP:  79;                                

ASTORIA, OR    PTCLDY    58  57  97 S3        30.04S                  
6HR MIN TEMP:  58; 6HR MAX TEMP:  73;                                

$$
 
WAZ019-023-024-040-567>569-150700-
CASCADE MOUNTAINS AND COLUMBIA GORGE
  
CITY           SKY/WX    TMP DP  RH WIND       PRES   REMARKS
STAMPEDE PASS  CLEAR     66  52  60 W3        30.21S                  
6HR MIN TEMP:  64; 6HR MAX TEMP:  78;                                

TROUTDALE, OR  CLEAR     74  59  59 CALM      29.97R                  
6HR MIN TEMP:  74; 6HR MAX TEMP:  93;                                

HOOD RIVER, OR CLEAR     68  55  64 CALM      30.00S                  
THE DALLES, OR CLEAR     80  54  40 W6        29.96R                  
6HR MIN TEMP:  79; 6HR MAX TEMP: 101;                                

$$

WAZ026-027-041>044-520-521-150700-
EAST SLOPES
  
CITY           SKY/WX    TMP DP  RH WIND       PRES   REMARKS
OMAK           CLEAR     66  38  35 NW9       30.08R                  
6HR MIN TEMP:  66; 6HR MAX TEMP:  91;                                

WENATCHEE      CLEAR     77  32  19 CALM      30.04R                  
6HR MIN TEMP:  76; 6HR MAX TEMP:  92;                                

ELLENSBURG     CLEAR     66  44  45 NE8       30.07S                  
6HR MIN TEMP:  66; 6HR MAX TEMP:  93;                                

YAKIMA         CLEAR     71  52  50 W6        30.03S                  
6HR MIN TEMP:  69; 6HR MAX TEMP:  93;                                

SUNNYSIDE ARPT PTCLDY    65  54  67 CALM      30.01S                  
6HR MIN TEMP:  63; 6HR MAX TEMP:  92;                                

YAKIMA TC        N/A     73  37  27 CALM      30.03R                  
6HR MIN TEMP:  73; 6HR MAX TEMP:  92;                                

$$

WAZ028-034-035-150700-
COLUMBIA BASIN
  
CITY           SKY/WX    TMP DP  RH WIND       PRES   REMARKS
EPHRATA        CLEAR     77  20  12 NW9       30.03S                  
6HR MIN TEMP:  77; 6HR MAX TEMP:  93;                                

MOSES LAKE     CLEAR     72  28  19 NW8       30.04R                  
6HR MIN TEMP:  68; 6HR MAX TEMP:  95;                                

PASCO          PTCLDY    62  56  80 N5        29.98F                  
6HR MIN TEMP:  62; 6HR MAX TEMP:  93;                                

RICHLAND ARPT  PTCLDY    70  48  46 CALM      29.98F                  
6HR MIN TEMP:  69; 6HR MAX TEMP:  97;                                

HERMISTON, OR  PTCLDY    73  41  31 SE3       29.98S                  
6HR MIN TEMP:  72; 6HR MAX TEMP:  98;                                

$$

WAZ036>038-150700-
NORTHEAST WASHINGTON
  
CITY           SKY/WX    TMP DP  RH WIND       PRES   REMARKS
SPOKANE GEIGER CLEAR     65  34  31 W7        30.09S                  
6HR MIN TEMP:  65; 6HR MAX TEMP:  88;                                

SPOKANE FELTS  CLEAR     64  36  35 CALM      30.07R                  
6HR MIN TEMP:  64; 6HR MAX TEMP:  90;                                

FAIRCHILD AFB  NOT AVBL                                               
COEURDALENE,ID CLEAR     67  42  40 SE3       30.09S                  
6HR MIN TEMP:  66; 6HR MAX TEMP:  88;                                

DEER PARK      CLEAR     56  35  45 CALM      30.08S                  
6HR MIN TEMP:  52; 6HR MAX TEMP:  89;                                

$$

WAZ029>033-150700-
SOUTHEAST WASHINGTON
  
CITY           SKY/WX    TMP DP  RH WIND       PRES   REMARKS
PULLMAN        CLEAR     59  44  57 CALM      30.11S                  
6HR MIN TEMP:  58; 6HR MAX TEMP:  86;                                

LEWISTON, ID   CLEAR     78  41  26 SW3       30.03R                  
6HR MIN TEMP:  76; 6HR MAX TEMP:  95;                                

WALLA WALLA    PTCLDY    75  43  31 E8        30.02F                  
6HR MIN TEMP:  73; 6HR MAX TEMP:  95;                                

PENDLETON, OR  PTCLDY    70  37  29 E9        30.04R                  
6HR MIN TEMP:  70; 6HR MAX TEMP:  94;                                

$$